Date String (YYYY-MM-DD hh:mm:ss) UTC,Instrument flags,Ambient pressure (hPa),Sample flow (lpm),Bypass flow (lpm),Sample temperature (°C),Ambient temperature (°C),ASC tube jacket temperature (°C),LED temperature (°C),Box temperature (°C),Sample RH (%),Span deviation,Mass concentration (μg/m³),Mass concentration (μg/m³),Mass concentration (μg/m³)
DateTimeUTC,F1_M11,P_M11,Q1_M11,Q2_M11,T1_M11,T2_M11,T3_M11,T4_M11,T5_M11,U1_M11,ZSPAN_M11,X0_M11,X2_M11,X1_M11
2022-06-30 01:00:00,,0827.1,4.99,0.00,28.9,26.9,00.0,37.7,30.7,24.6,0000.0,0015.00,0004.73,0003.68
2022-06-30 01:01:00,,0827.1,4.99,0.00,28.9,27.0,00.0,37.7,30.8,24.6,0000.0,0014.03,0004.74,0003.70
2022-06-30 01:02:00,,0827.1,5.00,0.00,28.9,27.2,00.0,37.7,30.8,24.2,0000.0,0013.44,0004.72,0003.72
2022-06-30 01:03:00,,0827.1,4.99,0.00,28.9,27.4,00.0,37.7,30.9,23.6,0000.0,0013.21,0004.68,0003.72
2022-06-30 01:04:00,,0827.2,5.00,0.00,29.0,27.6,00.0,37.7,30.9,23.1,0000.0,0012.85,0004.62,0003.72
2022-06-30 01:05:00,,0827.2,5.00,0.00,29.0,27.8,00.0,37.7,31.0,22.4,0000.0,0011.23,0004.60,0003.72
2022-06-30 01:06:00,,0827.2,5.00,0.00,29.0,28.0,00.0,37.8,31.1,22.5,0000.0,0011.58,0004.55,0003.70
2022-06-30 01:07:00,,0827.2,5.01,0.00,29.1,28.2,00.0,37.8,31.1,23.0,0000.0,0011.63,0004.53,0003.70
2022-06-30 01:08:00,,0827.2,5.00,0.00,29.1,28.2,00.0,37.8,31.2,23.1,0000.0,0011.35,0004.55,0003.70
2022-06-30 01:09:00,,0827.1,4.99,0.00,29.1,27.7,00.0,37.8,31.0,23.7,0000.0,0010.77,0004.51,0003.70
2022-06-30 01:10:00,,0827.2,5.00,0.00,29.0,26.9,00.0,37.7,30.8,22.9,0000.0,0010.76,0004.46,0003.69
2022-06-30 01:11:00,,0827.2,5.01,0.00,29.0,26.7,00.0,37.7,30.7,22.9,0000.0,0010.49,0004.41,0003.67
2022-06-30 01:12:00,,0827.2,5.00,0.00,28.9,26.8,00.0,37.7,30.7,23.3,0000.0,0010.53,0004.39,0003.65
2022-06-30 01:13:00,,0827.2,4.99,0.00,28.9,27.0,00.0,37.7,30.7,23.6,0000.0,0011.00,0004.42,0003.65
2022-06-30 01:14:00,,0827.2,4.99,0.00,28.9,27.2,00.0,37.7,30.8,23.8,0000.0,0011.20,0004.44,0003.66
2022-06-30 01:15:00,,0827.3,5.00,0.00,28.9,27.4,00.0,37.7,30.9,23.6,0000.0,0011.43,0004.44,0003.67
2022-06-30 01:16:00,,0827.4,5.00,0.00,29.0,27.6,00.0,37.7,30.9,23.6,0000.0,0011.47,0004.46,0003.68
2022-06-30 01:17:00,,0827.4,4.99,0.00,29.0,27.8,00.0,37.7,31.0,24.1,0000.0,0011.02,0004.49,0003.69
2022-06-30 01:18:00,,0827.5,5.00,0.00,29.0,27.9,00.0,37.7,31.0,24.2,0000.0,0010.63,0004.46,0003.70
2022-06-30 01:19:00,,0827.5,4.99,0.00,29.1,28.1,00.0,37.8,31.1,24.3,0000.0,0010.37,0004.47,0003.70
2022-06-30 01:20:00,,0827.6,4.99,0.00,29.1,28.2,00.0,37.8,31.2,24.5,0000.0,0010.24,0004.49,0003.70
2022-06-30 01:21:00,,0827.5,5.00,0.00,29.1,27.9,00.0,37.8,31.1,24.8,0000.0,0010.27,0004.56,0003.71
2022-06-30 01:22:00,,0827.6,4.99,0.00,29.1,27.0,00.0,37.7,30.8,25.1,0000.0,0011.01,0004.57,0003.72
2022-06-30 01:23:00,,0827.7,5.01,0.00,29.0,26.7,00.0,37.7,30.7,25.3,0000.0,0011.05,0004.57,0003.74
2022-06-30 01:24:00,,0827.7,5.00,0.00,28.9,26.7,00.0,37.7,30.7,25.4,0000.0,0011.82,0004.58,0003.74
2022-06-30 01:25:00,,0827.8,5.00,0.00,28.9,26.9,00.0,37.7,30.7,25.5,0000.0,0012.06,0004.59,0003.74
2022-06-30 01:26:00,,0827.8,5.00,0.00,28.9,27.0,00.0,37.7,30.8,25.7,0000.0,0012.32,0004.66,0003.74
2022-06-30 01:27:00,,0827.9,5.01,0.00,28.9,27.3,00.0,37.7,30.8,25.7,0000.0,0012.13,0004.69,0003.74
2022-06-30 01:28:00,,0827.9,5.00,0.00,28.9,27.5,00.0,37.7,30.9,25.7,0000.0,0012.83,0004.76,0003.75
2022-06-30 01:29:00,,0827.9,5.00,0.00,29.0,27.7,00.0,37.7,30.9,25.6,0000.0,0013.13,0004.84,0003.76
2022-06-30 01:30:00,,0827.8,5.00,0.00,29.0,27.8,00.0,37.7,31.0,25.8,0000.0,0013.30,0004.88,0003.77
2022-06-30 01:31:00,,0827.9,4.99,0.00,29.0,28.0,00.0,37.7,31.1,25.9,0000.0,0014.10,0004.92,0003.77
2022-06-30 01:32:00,,0827.9,5.00,0.00,29.1,28.1,00.0,37.8,31.1,25.8,0000.0,0015.67,0004.89,0003.78
2022-06-30 01:33:00,,0827.9,5.00,0.00,29.1,28.0,00.0,37.8,31.1,25.8,0000.0,0016.00,0004.91,0003.78
2022-06-30 01:34:00,,0827.9,5.01,0.00,29.0,27.2,00.0,37.7,30.9,25.7,0000.0,0016.44,0004.90,0003.79
2022-06-30 01:35:00,,0827.9,5.01,0.00,29.0,26.7,00.0,37.7,30.7,25.7,0000.0,0015.30,0004.90,0003.80
2022-06-30 01:36:00,,0827.9,4.99,0.00,28.9,26.7,00.0,37.7,30.7,25.2,0000.0,0015.10,0004.95,0003.82
2022-06-30 01:37:00,,0827.9,4.99,0.00,28.9,26.8,00.0,37.7,30.7,24.5,0000.0,0014.73,0004.90,0003.83
2022-06-30 01:38:00,,0827.9,5.01,0.00,28.9,27.0,00.0,37.7,30.7,23.0,0000.0,0014.70,0004.87,0003.82
2022-06-30 01:39:00,,0827.8,4.99,0.00,28.9,27.2,00.0,37.7,30.8,22.3,0000.0,0014.16,0004.80,0003.81
2022-06-30 01:40:00,,0827.9,5.00,0.00,28.9,27.4,00.0,37.7,30.8,22.0,0000.0,0014.22,0004.74,0003.80
2022-06-30 01:41:00,,0828.0,5.00,0.00,28.9,27.6,00.0,37.7,30.9,22.0,0000.0,0014.59,0004.67,0003.78
2022-06-30 01:42:00,,0827.8,5.01,0.00,28.9,27.8,00.0,37.7,31.0,22.0,0000.0,0014.15,0004.58,0003.77
2022-06-30 01:43:00,,0828.0,5.00,0.00,29.0,27.9,00.0,37.7,31.0,21.9,0000.0,0013.06,0004.53,0003.75
2022-06-30 01:44:00,,0827.9,5.00,0.00,29.0,28.1,00.0,37.7,31.1,21.9,0000.0,0011.66,0004.54,0003.75
2022-06-30 01:45:00,,0827.8,5.00,0.00,29.1,28.2,00.0,37.8,31.1,21.9,0000.0,0011.24,0004.56,0003.75
2022-06-30 01:46:00,,0827.8,4.99,0.00,29.1,27.9,00.0,37.7,31.0,21.9,0000.0,0011.20,0004.58,0003.74
2022-06-30 01:47:00,,0827.9,5.00,0.00,29.0,27.0,00.0,37.7,30.8,21.9,0000.0,0011.49,0004.52,0003.71
2022-06-30 01:48:00,,0827.9,5.01,0.00,28.9,26.7,00.0,37.7,30.7,22.0,0000.0,0011.88,0004.51,0003.71
2022-06-30 01:49:00,,0827.9,5.00,0.00,28.9,26.7,00.0,37.6,30.7,21.8,0000.0,0012.63,0004.61,0003.73
2022-06-30 01:50:00,,0828.0,4.99,0.00,28.9,26.8,00.0,37.6,30.7,22.0,0000.0,0012.60,0004.66,0003.77
2022-06-30 01:51:00,,0828.1,5.00,0.00,28.8,27.0,00.0,37.6,30.7,22.0,0000.0,0012.11,0004.67,0003.80
2022-06-30 01:52:00,,0828.1,5.00,0.00,28.8,27.2,00.0,37.6,30.8,22.1,0000.0,0011.42,0004.69,0003.82
2022-06-30 01:53:00,,0828.2,5.00,0.00,28.9,27.4,00.0,37.7,30.8,22.0,0000.0,0011.81,0004.72,0003.84
2022-06-30 01:54:00,,0828.3,5.01,0.00,28.9,27.6,00.0,37.7,30.9,22.0,0000.0,0011.23,0004.77,0003.88
2022-06-30 01:55:00,,0828.2,4.99,0.00,28.9,27.8,00.0,37.7,30.9,22.1,0000.0,0011.23,0004.76,0003.90
2022-06-30 01:56:00,,0828.2,5.00,0.00,29.0,27.9,00.0,37.7,31.0,22.2,0000.0,0012.20,0004.79,0003.93
2022-06-30 01:57:00,,0828.2,4.99,0.00,29.0,28.1,00.0,37.7,31.0,22.2,0000.0,0012.03,0004.77,0003.95
2022-06-30 01:58:00,,0828.2,4.99,0.00,29.1,28.2,00.0,37.7,31.1,22.3,0000.0,0011.79,0004.80,0003.98
2022-06-30 01:59:00,,0828.3,5.00,0.00,29.1,27.7,00.0,37.7,31.0,22.3,0000.0,0011.68,0004.85,0003.99
